GW1930 Weather Reports


time (UTC)temp
C
wind
direction
speed
KPH
gust
KPH
rain 1hr
cm
rain 24hr
cm
rain mn
cm
humidity
%
barometer
mb
20260510191550 26 0 0.0 0.0 0.00 0.00 0.00 69 1016.3
20260510190057 25 0 0.0 0.0 0.00 0.00 0.00 69 1016.4
20260510184544 25 0 0.0 0.0 0.00 0.00 0.00 69 1016.3
20260510183045 25 0 0.0 0.0 0.00 0.00 0.00 71 1016.6
20260510181550 25 0 0.0 0.0 0.00 0.00 0.00 75 1017.0
20260510180052 25 0 0.0 0.0 0.00 0.00 0.00 74 1017.1
20260510174547 24 0 0.0 0.0 0.00 0.00 0.00 73 1017.5
20260510173049 24 0 0.0 0.0 0.00 0.00 0.00 75 1017.6
20260510171550 23 0 0.0 0.0 0.00 0.00 0.00 78 1017.7
20260510170048 23 0 0.0 0.0 0.00 0.00 0.00 75 1017.8
20260510164545 23 0 0.0 0.0 0.00 0.03 0.00 79 1017.9
20260510163046 22 0 0.0 0.0 0.00 0.03 0.00 81 1017.9
20260510161547 22 0 0.0 0.0 0.00 0.03 0.00 80 1018.2
20260510160120 22 0 0.0 0.0 0.00 0.03 0.00 81 1018.2
20260510154545 22 0 0.0 0.0 0.00 0.33 0.00 82 1018.1
20260510153045 21 0 0.0 0.0 0.00 0.33 0.00 85 1018.1
20260510151543 21 0 0.0 0.0 0.00 0.33 0.00 84 1017.9
20260510150047 21 0 0.0 0.0 0.00 0.33 0.00 87 1018.0
20260510144541 20 0 0.0 0.0 0.00 0.79 0.00 89 1018.2
20260510143042 20 0 0.0 0.0 0.00 0.79 0.00 93 1018.1
20260510141541 18 0 0.0 0.0 0.00 0.79 0.00 94 1018.0
20260510140049 18 0 0.0 0.0 0.00 0.79 0.00 96 1017.9
20260510134544 18 0 0.0 0.0 0.00 1.19 0.00 97 1017.7
20260510133043 18 0 0.0 0.0 0.00 1.19 0.00 97 1017.5
20260510131539 17 0 0.0 0.0 0.00 1.19 0.00 98 1017.4
20260510130042 17 0 0.0 0.0 0.00 1.19 0.00 98 1017.4
20260510124545 17 0 0.0 0.0 0.00 2.03 0.00 98 1017.3
20260510123046 17 0 0.0 0.0 0.00 2.03 0.00 98 1017.1
20260510121546 17 0 0.0 0.0 0.00 2.03 0.00 98 1016.7
20260510120046 17 0 0.0 0.0 0.00 2.03 0.00 98 1016.6
20260510114549 16 0 0.0 0.0 0.00 2.03 0.00 98 1016.3
20260510113045 16 0 0.0 0.0 0.00 2.03 0.00 98 1016.2
20260510111604 16 0 0.0 0.0 0.00 2.03 0.00 98 1015.8
20260510110045 16 0 0.0 0.0 0.00 2.03 0.00 98 1015.6
20260510104544 16 0 0.0 0.0 0.00 2.03 0.00 98 1015.3
20260510103041 16 0 0.0 0.0 0.00 2.03 0.00 98 1015.0
20260510101551 16 0 0.0 0.0 0.00 2.03 0.00 98 1014.9
20260510100046 16 0 0.0 0.0 0.00 2.03 0.00 98 1014.9
20260510094544 16 0 0.0 0.0 0.00 2.03 0.00 97 1014.8
20260510093100 16 0 0.0 0.0 0.00 2.03 0.00 97 1014.7
20260510091544 16 0 0.0 0.0 0.00 2.03 0.00 98 1014.6
20260510090053 16 0 0.0 0.0 0.00 2.03 0.00 97 1014.6
20260510084543 16 0 0.0 0.0 0.00 2.03 0.00 97 1014.7
20260510083101 16 0 0.0 0.0 0.00 2.03 0.00 97 1014.5
20260510081600 16 0 0.0 0.0 0.00 2.03 0.00 97 1014.3
20260510080052 17 0 0.0 0.0 0.00 2.03 0.00 97 1014.1
20260510074544 17 0 0.0 0.0 0.00 2.03 0.00 97 1014.1
20260510073045 17 0 0.0 0.0 0.00 2.03 0.00 97 1013.7
20260510071548 17 0 0.0 0.0 0.00 2.03 0.00 97 1013.5
20260510070043 17 0 0.0 0.0 0.00 2.03 0.00 97 1013.5
20260510064551 17 0 0.0 0.0 0.00 2.03 0.00 97 1013.7
20260510063045 17 0 0.0 0.0 0.00 2.03 0.00 97 1013.5
20260510061545 17 0 0.0 0.0 0.00 2.03 0.00 97 1013.3
20260510060043 17 0 0.0 0.0 0.00 2.03 0.00 97 1013.5
20260510054547 17 0 0.0 0.0 0.00 2.03 0.00 97 1013.8
20260510053042 17 0 0.0 0.0 0.00 2.03 0.00 97 1014.2
20260510051545 17 0 0.0 0.0 0.00 2.03 0.00 97 1014.3
20260510050046 17 0 0.0 0.0 0.00 2.03 0.00 97 1014.4
20260510044600 17 0 0.0 0.0 0.00 2.03 2.03 97 1014.6
20260510043048 17 0 0.0 0.0 0.00 2.03 2.03 97 1014.9
20260510041540 17 0 0.0 0.0 0.00 2.03 2.03 97 1014.7
20260510040050 17 0 0.0 0.0 0.00 2.03 2.03 96 1014.6
20260510034545 18 0 0.0 0.0 0.00 2.03 2.03 96 1014.1
20260510033045 18 0 0.0 0.0 0.00 2.03 2.03 96 1014.5
20260510031544 18 0 0.0 0.0 0.00 2.03 2.03 96 1014.6
20260510030043 18 0 0.0 0.0 0.00 2.03 2.03 96 1014.8
20260510024549 18 0 0.0 0.0 0.00 2.03 2.03 96 1014.2
20260510023043 18 0 0.0 0.0 0.00 2.03 2.03 96 1014.2
20260510021546 18 0 0.0 0.0 0.00 2.03 2.03 95 1014.1
20260510020052 18 0 0.0 0.0 0.00 2.03 2.03 96 1014.1
20260510014551 18 0 0.0 0.0 0.00 2.03 2.03 96 1014.4
20260510013050 18 0 0.0 0.0 0.00 2.03 2.03 95 1014.4
20260510011552 18 0 0.0 0.0 0.00 2.03 2.03 95 1013.8
20260510010059 18 0 0.0 0.0 0.00 2.03 2.03 95 1014.0
20260510004547 18 0 0.0 0.0 0.00 2.03 2.03 95 1013.9
20260510003046 18 0 0.0 0.0 0.00 2.03 2.03 94 1013.6
20260510001545 19 0 0.0 0.0 0.00 2.03 2.03 93 1013.0
20260510000044 19 0 0.0 0.0 0.00 2.03 2.03 92 1013.0
20260509234542 20 0 0.0 0.0 0.00 2.06 2.03 92 1013.4
20260509233048 20 0 0.0 0.0 0.00 2.06 2.03 91 1013.1
20260509231545 20 0 0.0 0.0 0.00 2.06 2.03 90 1012.8
20260509230046 20 0 0.0 0.0 0.00 2.06 2.03 91 1012.8
20260509224544 20 0 0.0 0.0 0.00 2.11 2.03 91 1012.7
20260509223042 20 0 0.0 0.0 0.00 2.11 2.03 92 1012.3
20260509221548 20 0 0.0 0.0 0.00 2.11 2.03 92 1012.3
20260509220049 20 0 0.0 0.0 0.00 2.11 2.03 93 1012.3
20260509214545 20 0 0.0 0.0 0.00 2.64 2.03 93 1012.5
20260509213049 20 0 0.0 0.0 0.00 2.64 2.03 92 1012.7
20260509211552 20 0 0.0 0.0 0.00 2.64 2.03 91 1012.5
20260509210044 20 0 0.0 0.0 0.00 2.64 2.03 92 1012.3
20260509204550 20 0 0.0 0.0 0.00 3.12 2.03 91 1012.3
20260509203106 20 0 0.0 0.0 0.00 3.12 2.03 89 1012.2
20260509201545 20 0 0.0 0.0 0.00 3.12 2.03 89 1012.3
20260509200056 20 0 0.0 0.0 0.00 3.12 2.03 90 1012.3
20260509194551 19 0 0.0 0.0 0.00 3.17 2.03 91 1012.1
20260509193100 19 0 0.0 0.0 0.00 3.17 2.03 91 1012.1